User: anonymous   Login
Location: STAR School
(35.3054°N, 111.2976°W)
Time: 05:47:30
(UTC-07:00)
Language:

Altair - Orbit

View from above orbital plane
View from above orbital plane
View from above satellite
View from above satellite

Ground track
Ground track

The orbit data is extracted from the following two-line orbital elements,

1    50U 60009B   19137.15288677 -.00000116  00000-0 -29441-3 0  9998
2    50  47.2314 274.3528 0114029 221.4904 137.7184 12.20108617622164
Epoch (UTC): 17 May 2019 03:40:09
Eccentricity: 0.0114029
inclination: 47.2314°
perigee height: 1501 km
apogee height: 1683 km
right ascension of ascending node: 274.3528°
argument of perigee: 221.4904°
revolutions per day: 12.20108617
mean anomaly at epoch: 137.7184°
orbit number at epoch: 62216

The dashed part of the orbit path shows where the satellite is in the earth's shadow,  

DLR